• In Portugal
  • List of Countries
  • For 7 days
  • Water Temperature
  • Satellite Maps
  • Weather Map
  • Weather Widgets
  • user-avatar
    Login

    Hourly Weather La Massana

    Today, 27 May, Sunday

    Time Temperature Precipitation Wind Pressure Humidity
    00:00 +7°C° 0.1 mm 1 mps 610 mmHg 80%
    01:00 +7°C° 0.1 mm 1 mps 610 mmHg 79%
    02:00 +7°C° 0.1 mm 1 mps 610 mmHg 77%
    03:00 +7°C° 0.1 mm 1 mps 610 mmHg 75%
    04:00 +8°C° 0.1 mm 1 mps 610 mmHg 75%
    05:00 +9°C° 0.1 mm 1 mps 610 mmHg 74%
    06:00 +9°C° 0.1 mm 1 mps 611 mmHg 74%
    07:00 +11°C° 0.2 mm 1 mps 612 mmHg 69%
    08:00 +13°C° 0.2 mm 2 mps 612 mmHg 64%
    09:00 +15°C° 0.2 mm 2 mps 613 mmHg 59%
    10:00 +15°C° 0.4 mm 2 mps 613 mmHg 57%
    11:00 +16°C° 0.4 mm 2 mps 613 mmHg 56%
    12:00 +17°C° 0.4 mm 3 mps 614 mmHg 55%
    13:00 +16°C° 1.5 mm 2 mps 613 mmHg 59%
    14:00 +16°C° 1.5 mm 2 mps 613 mmHg 63%
    15:00 +15°C° 1.5 mm 2 mps 612 mmHg 67%
    16:00 +14°C° 1.2 mm 2 mps 612 mmHg 72%
    17:00 +13°C° 1.2 mm 1 mps 612 mmHg 77%
    18:00 +12°C° 1.2 mm 1 mps 611 mmHg 82%
    19:00 +11°C° 0.6 mm 1 mps 611 mmHg 85%
    20:00 +10°C° 0.6 mm 1 mps 611 mmHg 87%
    21:00 +9°C° 0.6 mm 1 mps 611 mmHg 90%
    22:00 +9°C° 0.3 mm 1 mps 610 mmHg 91%
    23:00 +8°C° 0.3 mm 1 mps 610 mmHg 93%

    Tomorrow, 28 May, Monday

    Time Temperature Precipitation Wind Pressure Humidity
    00:00 +8°C° 0.3 mm 1 mps 610 mmHg 94%
    01:00 +8°C° 0.1 mm 1 mps 610 mmHg 94%
    02:00 +8°C° 0.1 mm 1 mps 610 mmHg 94%
    03:00 +7°C° 0.1 mm 1 mps 609 mmHg 95%
    04:00 +8°C° 0.1 mm 1 mps 610 mmHg 93%
    05:00 +8°C° 0.1 mm 1 mps 610 mmHg 91%
    06:00 +9°C° 0.1 mm 1 mps 610 mmHg 90%
    07:00 +10°C° 0.1 mm 1 mps 611 mmHg 83%
    08:00 +12°C° 0.1 mm 1 mps 611 mmHg 77%
    09:00 +13°C° 0.1 mm 2 mps 612 mmHg 70%
    10:00 +13°C° 1.2 mm 2 mps 612 mmHg 72%
    11:00 +13°C° 1.2 mm 2 mps 612 mmHg 74%
    12:00 +12°C° 1.2 mm 3 mps 612 mmHg 75%
    13:00 +12°C° 1.5 mm 3 mps 612 mmHg 76%
    14:00 +12°C° 1.5 mm 3 mps 612 mmHg 77%
    15:00 +11°C° 1.5 mm 3 mps 611 mmHg 78%
    16:00 +12°C° 1.2 mm 2 mps 611 mmHg 82%
    17:00 +10°C° 1.2 mm 2 mps 611 mmHg 85%
    18:00 +9°C° 1.2 mm 2 mps 611 mmHg 89%
    19:00 +8°C° 0.6 mm 2 mps 611 mmHg 90%
    20:00 +8°C° 0.6 mm 1 mps 611 mmHg 91%
    21:00 +7°C° 0.6 mm 1 mps 611 mmHg 93%
    22:00 +7°C° 0.2 mm 1 mps 611 mmHg 92%
    23:00 +7°C° 0.2 mm 1 mps 610 mmHg 91%

    Day after tomorrow, 29 May, Tuesday

    Time Temperature Precipitation Wind Pressure Humidity
    00:00 +6°C° 0.2 mm 1 mps 610 mmHg 91%
    01:00 +6°C° 0 mm 1 mps 610 mmHg 92%
    02:00 +6°C° 0 mm 1 mps 610 mmHg 92%
    03:00 +6°C° 0 mm 1 mps 609 mmHg 93%
    04:00 +6°C° 0 mm 1 mps 610 mmHg 92%
    05:00 +7°C° 0 mm 1 mps 610 mmHg 91%
    06:00 +8°C° 0 mm 1 mps 610 mmHg 90%
    07:00 +10°C° 0 mm 1 mps 611 mmHg 82%
    08:00 +10°C° 0 mm 2 mps 612 mmHg 74%
    09:00 +13°C° 0 mm 2 mps 613 mmHg 66%
    10:00 +14°C° 0.4 mm 2 mps 613 mmHg 65%
    11:00 +14°C° 0.4 mm 2 mps 613 mmHg 65%
    12:00 +14°C° 0.4 mm 3 mps 613 mmHg 64%
    13:00 +13°C° 1 mm 3 mps 612 mmHg 66%
    14:00 +13°C° 1 mm 3 mps 612 mmHg 67%
    15:00 +13°C° 1 mm 3 mps 612 mmHg 69%
    16:00 +13°C° 0.9 mm 2 mps 611 mmHg 73%
    17:00 +12°C° 0.9 mm 2 mps 611 mmHg 77%
    18:00 +12°C° 0.9 mm 2 mps 610 mmHg 81%
    19:00 +10°C° 0.2 mm 1 mps 610 mmHg 85%
    20:00 +9°C° 0.2 mm 1 mps 610 mmHg 89%
    21:00 +7°C° 0.2 mm 1 mps 609 mmHg 93%
    22:00 +7°C° 0.3 mm 1 mps 609 mmHg 93%
    23:00 +6°C° 0.3 mm 1 mps 609 mmHg 93%

    30 May, Wednesday

    Time Temperature Precipitation Wind Pressure Humidity
    00:00 +6°C° 0.3 mm 1 mps 608 mmHg 93%
    01:00 +6°C° 0 mm 1 mps 608 mmHg 93%
    02:00 +6°C° 0 mm 1 mps 608 mmHg 93%
    03:00 +6°C° 0 mm 1 mps 608 mmHg 92%
    04:00 +6°C° 0 mm 1 mps 608 mmHg 91%
    05:00 +7°C° 0 mm 1 mps 608 mmHg 89%
    06:00 +8°C° 0 mm 1 mps 609 mmHg 87%
    07:00 +9°C° 0.1 mm 1 mps 609 mmHg 83%
    08:00 +10°C° 0.1 mm 1 mps 610 mmHg 78%
    09:00 +10°C° 0.1 mm 2 mps 610 mmHg 73%
    10:00 +10°C° 0.3 mm 2 mps 611 mmHg 71%
    11:00 +12°C° 0.3 mm 2 mps 611 mmHg 69%
    12:00 +12°C° 0.3 mm 3 mps 611 mmHg 66%
    13:00 +12°C° 1.1 mm 2 mps 611 mmHg 69%
    14:00 +12°C° 1.1 mm 2 mps 611 mmHg 71%
    15:00 +12°C° 1.1 mm 2 mps 610 mmHg 74%
    16:00 +10°C° 1.2 mm 2 mps 610 mmHg 77%
    17:00 +11°C° 1.2 mm 1 mps 610 mmHg 81%
    18:00 +10°C° 1.2 mm 1 mps 610 mmHg 84%
    19:00 +9°C° 0.5 mm 1 mps 610 mmHg 87%
    20:00 +8°C° 0.5 mm 1 mps 610 mmHg 90%
    21:00 +7°C° 0.5 mm 1 mps 610 mmHg 93%
    22:00 +7°C° 0.6 mm 1 mps 610 mmHg 94%
    23:00 +7°C° 0.6 mm 1 mps 610 mmHg 94%

    31 May, Thursday

    Time Temperature Precipitation Wind Pressure Humidity
    00:00 +7°C° 0.6 mm 1 mps 610 mmHg 94%
    01:00 +6°C° 0.3 mm 1 mps 609 mmHg 94%
    02:00 +6°C° 0.3 mm 1 mps 609 mmHg 94%
    03:00 +6°C° 0.3 mm 1 mps 609 mmHg 94%
    04:00 +6°C° 0 mm 1 mps 610 mmHg 92%
    05:00 +7°C° 0 mm 1 mps 610 mmHg 91%
    06:00 +6°C° 0 mm 0 mps 610 mmHg 90%
    07:00 +9°C° 0 mm 1 mps 611 mmHg 83%
    08:00 +10°C° 0 mm 1 mps 612 mmHg 76%
    09:00 +12°C° 0 mm 1 mps 613 mmHg 70%
    10:00 +12°C° 0.1 mm 1 mps 613 mmHg 70%
    11:00 +12°C° 0.1 mm 2 mps 613 mmHg 70%
    12:00 +12°C° 0.1 mm 2 mps 613 mmHg 70%
    13:00 +12°C° 0.3 mm 2 mps 613 mmHg 71%
    14:00 +13°C° 0.3 mm 1 mps 613 mmHg 72%
    15:00 +13°C° 0.3 mm 1 mps 613 mmHg 73%
    16:00 +12°C° 0.4 mm 1 mps 613 mmHg 77%
    17:00 +12°C° 0.4 mm 1 mps 613 mmHg 81%
    18:00 +11°C° 0.4 mm 1 mps 612 mmHg 84%
    19:00 +10°C° 0.2 mm 1 mps 612 mmHg 88%
    20:00 +9°C° 0.2 mm 1 mps 612 mmHg 92%
    21:00 +7°C° 0.2 mm 0 mps 612 mmHg 95%
    22:00 +7°C° 0 mm 0 mps 612 mmHg 95%
    23:00 +7°C° 0 mm 0 mps 612 mmHg 96%

    1 June, Friday

    Time Temperature Precipitation Wind Pressure Humidity
    00:00 +6°C° 0 mm 0 mps 612 mmHg 96%
    01:00 +6°C° 0 mm 0 mps 612 mmHg 95%
    02:00 +6°C° 0 mm 0 mps 612 mmHg 95%
    03:00 +6°C° 0 mm 0 mps 611 mmHg 95%
    04:00 +6°C° 0 mm 0 mps 612 mmHg 93%
    05:00 +7°C° 0 mm 0 mps 612 mmHg 90%
    06:00 +8°C° 0 mm 0 mps 613 mmHg 88%
    07:00 +11°C° 0.1 mm 1 mps 613 mmHg 80%
    08:00 +12°C° 0.1 mm 1 mps 614 mmHg 73%
    09:00 +14°C° 0.1 mm 1 mps 615 mmHg 66%
    10:00 +14°C° 0.9 mm 1 mps 615 mmHg 66%
    11:00 +15°C° 0.9 mm 2 mps 615 mmHg 67%
    12:00 +15°C° 0.9 mm 2 mps 615 mmHg 67%
    13:00 +15°C° 1.5 mm 2 mps 615 mmHg 69%
    14:00 +15°C° 1.5 mm 1 mps 614 mmHg 72%
    15:00 +14°C° 1.5 mm 1 mps 614 mmHg 74%
    16:00 +14°C° 0.8 mm 1 mps 614 mmHg 76%
    17:00 +13°C° 0.8 mm 1 mps 614 mmHg 79%
    18:00 +13°C° 0.8 mm 1 mps 613 mmHg 81%
    19:00 +11°C° 0.4 mm 1 mps 613 mmHg 85%
    20:00 +10°C° 0.4 mm 1 mps 613 mmHg 88%
    21:00 +7°C° 0.4 mm 0 mps 612 mmHg 91%
    22:00 +8°C° 0.1 mm 1 mps 612 mmHg 91%
    23:00 +8°C° 0.1 mm 1 mps 612 mmHg 90%
    Show more